Regional Weather Roundup
Issued by NWS Northern Indiana

Home | Current Version | Previous Version | Graphics & Text | Print | Product List | Glossary On
Versions: 1 2 3 4 5 6 7 8 9 10 11 12 13 14 15 16 17 18 19 20 21 22 23 24 25 26 27 28 29 30 31 32 33 34 35 36 37 38 39 40 41 42 43 44 45 46 47 48 49 50
000
ASUS43 KIWX 170300
RWRIWX

KIWX WEATHER ROUNDUP
NATIONAL WEATHER SERVICE NORTHERN INDIANA
1100 PM EDT TUE SEP 16 2014

NOTE: "FAIR" INDICATES FEW OR NO CLOUDS BELOW 12,000 FEET WITH NO
SIGNIFICANT WEATHER AND/OR OBSTRUCTIONS TO VISIBILITY.

* THESE STATIONS ARE NOT UNDER NWS QUALITY CONTROL. THEY ALSO MAY NOT
  REPORT WEATHER SUCH AS PRECIPITATION OR FOG.

INZ001>027-170400-
NORTHERN INDIANA

CITY           SKY/WX    TMP DP  RH WIND       PRES   REMARKS
GARY*          CLEAR     50  48  93 SE5       30.11S
VALPARAISO     CLEAR     48  46  93 CALM      30.11S
KNOX*          CLEAR     48  46  91 CALM      30.10S
SOUTH BEND     CLEAR     50  45  83 CALM      30.12S
GOSHEN         CLEAR     50  47  89 CALM      30.11S
WARSAW*        CLEAR     50  48  93 CALM      30.11S
ANGOLA*        CLEAR     52  48  87 CALM      30.11S
FORT WAYNE     CLEAR     49  46  90 CALM      30.11S
PERU/GRISSOM   CLEAR     51  51 100 SW2       30.10S

$$
INZ028>050-170400-
CENTRAL INDIANA

CITY           SKY/WX    TMP DP  RH WIND       PRES   REMARKS
LAFAYETTE      CLEAR     50  49  96 MISG      30.10S
KOKOMO*        CLEAR     48  45  87 CALM      30.11R
MUNCIE*          N/A     48  45  89 CALM      30.11S
INDIANAPOLIS   CLEAR     53  49  86 S7        30.10F

$$
MIZ043>046-050>051-056>058-064>065-071>073-077>080-170400-
SOUTHWEST LOWER MICHIGAN

CITY           SKY/WX    TMP DP  RH WIND       PRES   REMARKS
BATTLE CREEK   CLEAR     49  43  80 CALM      30.10F
BENTON HARBOR  CLEAR     45  44  97 CALM      30.10F
COLDWATER*     CLEAR     47  46  95 CALM      30.11S
HILLSDALE*     CLEAR     46  45  97 CALM      30.10F
HOLLAND        CLEAR     46  42  86 CALM      30.11S
GRAND RAPIDS   CLEAR     49  43  80 W5        30.10F
KALAMAZOO      CLEAR     47  43  86 CALM      30.11S
STURGIS*         N/A     46  45  93 CALM      30.11S
THREE RIVERS*  FAIR      48  46  91 CALM      30.11S

$$
OHZ001>008-015>018-024>025-170400-
NORTHWEST OHIO

CITY           SKY/WX    TMP DP  RH WIND       PRES   REMARKS
DEFIANCE       CLEAR     50  46  86 CALM      30.10S
FINDLAY        CLEAR     52  47  83 SW5       30.09S
TOLEDO EXPRESS CLEAR     49  46  90 CALM      30.08S
TOLEDO METCALF CLEAR     52  46  80 CALM      30.09S
LIMA           CLEAR     52  47  83 SW3       30.10F

$$
&&



USA.gov is the U.S. government's official web portal to all federal, state and local government web resources and services.